Location: Garrett Cemetery
(39.5874°N, 98.7284°W)
Time: 08:28:25
(UTC+00:00)

Daily predictions for brighter satellites

Satellite Brightness Start Highest point End
(mag) Time Altitude Azimuth Time Altitude Azimuth Time Altitude Azimuth
Cosmos 1726 4.1 12:01:12 10° SSE 12:04:26 30° E 12:07:41 10° NNE
Cosmos 1758 Rocket 4.5 12:04:40 10° N 12:08:55 49° E 12:13:10 10° SSE
NOAA 6 4.4 12:03:51 10° NNE 12:09:02 66° ESE 12:14:10 10° S
Meteor 1-24 Rocket 4.2 12:09:10 35° WNW 12:10:09 38° W 12:15:31 10° SSW
Cosmos 1980 Rocket 2.4 12:04:34 10° SSW 12:10:13 75° ESE 12:15:55 10° NNE
Cosmos 1626 Rocket 3.8 12:15:46 40° WNW 12:16:12 42° W 12:20:18 10° SSW
Cosmos 1470 4.0 12:19:38 26° NNW 12:19:38 26° NNW 12:21:40 10° N
Cosmos 1697 Rocket 2.8 12:14:05 10° SW 12:19:31 50° WNW 12:24:58 10° NNE
STARLINK-46 4.5 12:19:55 16° NE 12:19:55 16° NE 12:21:08 10° ENE
FENGYUN 3A 3.6 12:14:41 10° N 12:20:01 62° WNW 12:25:20 10° SSW
STARLINK-28 4.2 12:17:30 13° SSW 12:20:31 47° SE 12:23:56 10° ENE
Cosmos 2184 Rocket 4.4 12:15:28 10° NNW 12:21:09 39° W 12:26:51 10° SSW
USA 116 4.1 12:17:48 10° S 12:22:51 79° WSW 12:27:27 10° NNW
Helios 1A Rocket 3.1 12:21:37 10° NNE 12:25:44 73° ESE 12:29:51 10° S
Cosmos 2154 Rocket 4.0 12:22:53 10° NNW 12:28:54 55° W 12:34:55 10° SSW
Meteor 2-17 Rocket 4.3 12:23:17 10° N 12:29:23 75° W 12:35:24 10° S
STARLINK 4.5 12:27:23 10° SSW 12:31:06 46° SE 12:34:50 10° ENE
DMSP B5D1-3 4.5 12:27:06 10° SSE 12:32:14 88° WSW 12:37:22 10° NNW
Cosmos 2344 3.8 12:25:38 10° WSW 12:32:51 47° NW 12:40:37 10° NNE
STARLINK-34 4.1 12:31:36 10° SW 12:35:32 60° SE 12:39:30 10° ENE
Cosmos 1825 Rocket 3.5 12:31:31 10° N 12:35:52 87° E 12:40:12 10° S
STARLINK-24 4.0 12:33:55 10° SW 12:37:53 63° SE 12:41:51 10° NE
STARLINK-81 4.1 12:34:40 10° SW 12:38:36 58° SE 12:42:34 10° ENE
NOSS 2-2 (C) 3.8 12:37:40 25° W 12:39:05 34° NW 12:42:42 10° NNE
STARLINK-54 3.9 12:36:26 10° SW 12:40:24 66° SE 12:44:25 10° NE
CZ-4B DEB 4.5 12:35:49 10° N 12:41:05 45° WNW 12:46:18 10° SW
Cosmos 2082 4.1 12:36:41 15° NW 12:41:07 43° WSW 12:46:27 10° S
STARLINK-77 4.0 12:37:56 10° SW 12:41:54 62° SE 12:45:53 10° NE
STARLINK-25 3.9 12:39:35 10° SW 12:43:34 65° SE 12:47:33 10° NE
Abrixas rocket 4.1 12:43:57 14° NNW 12:45:09 16° N 12:47:11 10° NE
COSMO-SKYMED 1 3.7 12:41:50 10° SSW 12:45:21 24° W 12:47:23 17° WNW
STARLINK-71 3.7 12:41:24 10° SW 12:45:24 75° SE 12:49:25 10° NE
STARLINK-79 3.8 12:42:51 10° SW 12:46:51 70° SE 12:50:52 10° NE
ALOS 3.1 12:44:33 10° NNW 12:48:29 27° WNW 12:52:24 10° SW
STARLINK-78 3.8 12:44:33 10° SW 12:48:32 73° SE 12:52:33 10° NE
NOSS 3-4 (A) 3.9 12:43:05 10° SSW 12:48:56 63° ESE 12:55:04 10° NE
NOSS 3-4 (C) 4.0 12:43:13 10° SSW 12:49:02 62° ESE 12:55:10 10° NE
STARLINK-57 3.6 12:46:16 10° SW 12:50:17 79° SE 12:54:19 10° NE
NOSS 2-2 (E) 4.4 12:49:14 19° WNW 12:50:30 23° NW 12:53:46 10° N
Cosmos 1606 Rocket 3.6 12:47:08 10° SSW 12:51:31 58° W 12:55:56 10° N
CZ-3B R/B 3.6 12:50:21 10° SSW 12:51:35 11° SSW 12:52:51 10° S
STARLINK-49 3.7 12:47:48 10° SW 12:51:49 78° SE 12:55:50 10° NE
SL-4 R/B 3.0 12:49:24 13° NNW 12:52:05 29° NNE 12:55:08 10° E
STARLINK-27 3.6 12:49:27 10° SW 12:53:28 80° SE 12:57:29 10° NE
Cosmos 2297 Rocket 3.6 12:52:52 15° WNW 12:54:35 17° W 12:58:06 10° SW
Cosmos 1726 Rocket 3.5 12:50:19 10° SSW 12:54:45 69° W 12:59:11 10° N
USA 215 3.8 12:49:01 10° SSE 12:55:04 40° SW 13:00:46 12° WNW
STARLINK-74 3.6 12:51:05 10° SW 12:55:06 83° SE 12:59:09 10° NE
ATLAS 3B R/B 4.0 12:49:13 10° NNW 12:55:21 36° NE 13:01:36 10° ESE
STARLINK-39 3.6 12:52:45 10° SW 12:56:47 86° SE 13:00:48 10° NE
Cosmos 2322 Rocket 3.5 12:51:56 10° S 12:57:15 45° ESE 13:02:38 10° NE
AQUARIUS 4.4 12:53:32 10° NNE 12:58:03 77° ESE 13:02:32 10° S
STARLINK 3.5 12:54:24 10° SW 12:58:25 89° SE 13:02:27 10° NE
STARLINK-69 3.5 12:56:14 10° SW 13:00:15 82° NW 13:04:18 10° NE
Cosmos 2366 rocket 4.2 12:54:30 10° N 13:00:53 84° E 13:07:15 10° S
STARLINK-21 3.5 12:57:45 10° SW 13:01:47 85° NW 13:05:49 10° NE
NOSS 3-2 (A) 4.1 12:54:03 10° NW 13:01:48 84° WSW 13:10:19 10° SSE
STARLINK-45 3.5 12:59:37 10° SW 13:03:38 74° NW 13:07:40 10° NE
STARLINK-70 3.5 13:01:11 10° SW 13:05:11 75° NW 13:09:14 10° NE
CZ-4 R/B 4.2 13:02:12 10° NE 13:05:41 24° E 13:09:07 10° SSE
Cosmos 2227 Rocket 3.8 13:03:53 12° WNW 13:06:12 15° W 13:09:13 10° SW
STARLINK-76 3.5 13:02:42 10° SW 13:06:43 77° NW 13:10:45 10° NE
Cosmos 923 Rocket 4.0 13:02:41 10° SSW 13:07:52 63° WNW 13:13:08 10° NNE
STARLINK 3.5 13:04:23 10° SW 13:08:24 75° NW 13:12:25 10° NE
IRS-1C Rocket 4.1 13:04:05 10° NNE 13:09:23 89° ESE 13:14:39 10° SSW
STARLINK-32 3.5 13:06:00 10° SW 13:10:00 72° NW 13:14:02 10° NE
COSMOS 2455 3.1 13:05:29 10° SW 13:11:14 46° NW 13:17:00 10° NNE
STARLINK-40 3.5 13:07:41 10° WSW 13:11:42 70° NW 13:15:43 10° NE
CZ-2C R/B 4.5 13:07:22 10° SSE 13:11:55 56° ENE 13:16:24 10° N
H-2A R/B 2.9 13:09:04 10° N 13:12:52 50° WNW 13:16:38 10° SSW
STARLINK-44 3.5 13:09:20 10° WSW 13:13:20 68° NW 13:17:22 10° NE
BREEZE-M DEB (TANK) 3.8 13:13:07 10° W 13:14:16 12° SW 13:15:17 10° SSW
STARLINK-37 3.6 13:11:09 10° WSW 13:15:08 62° NW 13:19:08 10° NE
Cosmos 2263 Rocket 2.5 13:10:51 10° NNW 13:16:30 73° ENE 13:22:09 10° SSE
STARLINK-36 3.5 13:12:40 10° WSW 13:16:40 63° NW 13:20:40 10° NE
STARLINK-68 3.7 13:14:33 10° WSW 13:18:31 56° NW 13:22:29 10° NE
STARLINK-63 3.6 13:16:08 10° WSW 13:20:05 56° NW 13:24:03 10° NE
YAOGAN 6 3.0 13:17:20 10° NNE 13:20:52 65° E 13:24:22 10° S
Cosmos 1953 3.9 13:19:13 10° WSW 13:21:36 15° WNW 13:23:58 10° NW
STARLINK-35 3.6 13:17:41 10° WSW 13:21:38 57° NW 13:25:37 10° NE
Cosmos 2181 Rocket 4.3 13:16:36 10° SSW 13:22:24 43° WNW 13:28:21 10° N
CENTAUR R/B 3.5 13:14:46 10° NNW 13:22:58 75° NE 13:31:44 10° SE
STARLINK-51 3.7 13:19:20 10° WSW 13:23:16 55° NW 13:27:15 10° NE
Cosmos 1908 3.6 13:19:37 10° SSW 13:23:22 44° W 13:27:07 10° N
STARLINK-42 3.6 13:20:10 10° WSW 13:23:53 50° NW 13:27:39 10° NE
ATLAS 2AS CENTAUR R/B 3.1 13:16:06 10° SW 13:23:58 65° NW 13:31:57 10° NNE
STARLINK-64 3.6 13:20:33 10° WSW 13:24:17 51° NW 13:28:03 10° NE
STARLINK-30 3.7 13:21:01 10° WSW 13:24:57 54° NW 13:28:55 10° NE
